Temperature
8 7 7 7 6 6 5 5 4 3 3 4 3 3 2 1 1 1 1 0 0 -0 -1 -1 -1 -2 -2 -2 -2 -3 -3 -3 -3 -3 -3 -3 -2 -2
7 7 7 6 6 5 5 4 4 3 2 3 2 2 1 1 0 -0 -0 -1 -1 -1 -1 -1 -2 -2 -3 -3 -3 -3 -4 -4 -4 -3 -3 -3 -3 -3
7 7 6 6 5 5 4 4 3 3 2 2 2 1 1 1 0 -0 -1 -1 -1 -2 -2 -2 -3 -3 -3 -4 -4 -4 -4 -4 -4 -4 -4 -4 -4 -3
7 6 6 6 5 5 4 3 3 2 1 1 1 1 1 0 -0 -1 -1 -2 -2 -2 -2 -3 -3 -4 -4 -4 -5 -5 -5 -5 -5 -5 -5 -4 -4 -4
6 6 6 5 5 4 3 3 2 2 1 0 0 0 -0 -1 -1 -2 -2 -2 -3 -3 -3 -3 -4 -4 -4 -5 -5 -5 -5 -5 -5 -5 -5 -5 -5 -5
6 6 5 5 4 3 3 2 2 1 0 -0 -0 -1 -1 -2 -2 -3 -3 -3 -3 -4 -4 -4 -4 -5 -5 -5 -5 -5 -5 -5 -6 -6 -6 -5 -5 -5
6 5 5 4 3 3 2 2 1 0 -0 -1 -1 -2 -2 -2 -3 -3 -4 -4 -4 -4 -4 -4 -5 -5 -5 -5 -5 -5 -6 -6 -6 -6 -6 -6 -6 -5
5 5 4 4 3 2 2 1 0 -0 -1 -1 -2 -2 -3 -3 -4 -4 -5 -5 -5 -5 -6 -5 -5 -5 -5 -6 -6 -6 -6 -6 -6 -6 -6 -6 -6 -6
5 4 4 3 2 2 1 0 -0 -1 -1 -2 -3 -3 -3 -4 -4 -5 -5 -6 -6 -6 -6 -6 -6 -6 -6 -6 -6 -6 -7 -7 -7 -7 -7 -7 -6 -6
4 3 3 2 2 1 0 -0 -1 -1 -2 -3 -3 -3 -4 -4 -5 -6 -6 -6 -6 -6 -7 -7 -6 -6 -6 -6 -6 -7 -7 -7 -7 -7 -7 -7 -7 -7
3 3 2 2 1 0 -1 -1 -1 -2 -2 -3 -4 -4 -4 -5 -6 -6 -6 -7 -7 -7 -7 -8 -7 -7 -7 -7 -7 -7 -8 -8 -8 -8 -7 -7 -7 -7
3 2 1 1 0 -1 -1 -2 -2 -2 -3 -3 -4 -4 -5 -5 -6 -7 -7 -7 -8 -8 -8 -8 -8 -9 -9 -8 -7 -8 -8 -8 -8 -8 -7 -7 -7 -7
2 1 1 0 -1 -1 -2 -2 -3 -3 -4 -4 -4 -5 -5 -6 -6 -7 -7 -8 -8 -8 -8 -9 -9 -9 -9 -9 -8 -8 -8 -8 -8 -8 -8 -7 -7 -7
1 1 0 -1 -1 -2 -2 -3 -3 -4 -4 -5 -5 -6 -6 -6 -7 -7 -8 -8 -8 -8 -9 -9 -9 -9 -10 -10 -9 -8 -8 -8 -8 -8 -8 -8 -7 -7
0 -0 -1 -1 -2 -2 -3 -4 -4 -5 -5 -6 -6 -6 -7 -7 -8 -8 -8 -8 -8 -9 -9 -9 -9 -10 -10 -10 -10 -9 -9 -8 -8 -8 -8 -8 -8 -7
-1 -1 -1 -2 -2 -3 -3 -4 -5 -5 -6 -6 -7 -7 -7 -8 -8 -8 -9 -9 -9 -9 -9 -9 -10 -10 -10 -10 -10 -9 -9 -9 -9 -9 -8 -8 -7 -7
-1 -1 -2 -2 -3 -3 -4 -5 -5 -6 -6 -7 -7 -8 -8 -8 -9 -9 -9 -9 -10 -10 -9 -9 -10 -10 -10 -10 -9 -9 -9 -9 -9 -9 -8 -8 -7 -7
-2 -2 -2 -3 -3 -4 -5 -5 -6 -7 -7 -8 -8 -8 -9 -9 -9 -9 -10 -10 -10 -10 -10 -10 -10 -10 -9 -9 -9 -9 -9 -9 -9 -9 -9 -8 -7 -7
-2 -3 -3 -4 -4 -5 -5 -6 -7 -7 -8 -8 -9 -9 -9 -9 -10 -10 -10 -10 -10 -10 -10 -10 -11 -11 -11 -10 -9 -9 -10 -10 -9 -9 -8 -8 -8 -7
-3 -3 -4 -4 -5 -6 -6 -7 -7 -8 -8 -9 -9 -9 -10 -10 -10 -10 -10 -11 -11 -11 -10 -10 -11 -11 -11 -11 -11 -9 -10 -10 -9 -9 -8 -8 -7 -7
-3 -4 -4 -5 -6 -6 -7 -7 -8 -8 -9 -9 -9 -10 -10 -10 -10 -10 -11 -11 -11 -11 -11 -11 -11 -11 -11 -11 -11 -10 -9 -9 -9 -9 -9 -8 -8 -7
-4 -4 -5 -6 -6 -7 -7 -8 -8 -9 -9 -10 -10 -10 -10 -11 -11 -11 -11 -11 -11 -11 -11 -11 -11 -11 -11 -11 -11 -10 -9 -9 -9 -9 -9 -9 -9 -9
-5 -5 -5 -6 -7 -7 -8 -8 -9 -9 -9 -10 -10 -10 -11 -11 -11 -11 -11 -11 -11 -11 -11 -11 -11 -11 -11 -11 -11 -10 -10 -9 -9 -8 -8 -8 -8 -8
Wind_Speed
6 6 4 3 4 3 3 4 4 3 4 4 3 3 6 9 11 12 14 17 19 20 21 21 21 21 22 23 23 23 24 24 24 24 25 25 25 25
5 6 5 3 3 3 3 3 4 4 4 4 4 4 6 9 13 14 15 18 19 20 21 22 22 22 22 23 23 24 24 24 25 25 25 25 25 25
6 6 6 5 4 4 3 3 4 4 6 5 4 4 4 6 11 13 15 15 16 19 21 22 22 23 23 23 24 24 24 24 25 24 25 25 25 25
8 7 6 5 5 4 4 5 5 5 5 7 4 4 5 6 7 8 11 13 14 18 21 22 22 23 23 24 24 23 23 23 23 24 24 25 25 25
8 8 7 6 6 5 5 5 5 5 5 5 6 4 4 5 5 6 8 9 13 16 19 19 21 22 23 23 23 23 23 23 23 23 24 24 24 25
7 7 7 7 7 6 6 6 5 5 5 5 6 5 5 5 4 6 7 5 7 11 15 17 20 21 22 23 23 23 22 22 23 23 23 23 23 23
6 6 6 8 9 7 5 5 5 4 4 5 6 5 5 5 5 5 7 8 7 6 6 9 11 11 15 19 21 21 22 22 23 23 23 23 22 22
6 5 5 7 9 10 11 9 7 5 5 5 5 6 7 6 6 6 7 8 6 3 4 7 6 8 9 13 19 21 22 22 21 21 21 21 21 22
6 5 4 5 6 5 8 9 9 11 10 6 6 7 7 6 6 7 7 8 8 5 5 7 5 7 9 15 20 20 19 19 19 20 20 20 21 21
6 6 5 5 5 5 5 5 6 7 8 6 6 8 7 7 6 6 7 7 6 6 4 6 5 5 8 11 17 16 17 18 19 19 19 20 20 20
4 4 5 5 8 8 4 5 6 6 9 11 12 12 13 14 11 5 5 6 8 5 3 4 4 5 5 5 10 14 16 18 19 19 19 20 19 18
3 3 5 6 8 8 4 5 7 6 5 5 6 8 8 9 11 5 4 6 6 5 2 2 3 4 5 3 4 8 11 15 18 19 19 18 18 12
3 3 4 7 8 9 7 4 8 7 3 4 4 4 4 4 5 5 5 4 5 5 4 2 3 3 4 5 5 5 6 7 10 11 14 16 17 13
4 4 4 6 7 7 6 8 11 8 2 2 3 3 4 4 5 5 7 7 8 8 8 5 4 4 5 7 7 5 5 6 6 6 7 14 15 16
3 4 4 5 4 4 7 8 6 2 2 3 4 4 4 5 4 4 5 6 7 8 9 8 5 5 5 7 7 7 6 6 5 5 6 8 8 8
1 2 2 2 2 3 4 4 2 2 3 3 4 4 3 3 3 3 3 3 4 5 6 8 7 5 5 7 8 9 7 6 6 8 8 8 7 7
2 1 1 0 1 2 2 2 2 3 3 3 3 4 4 4 4 3 2 2 2 4 5 5 6 7 7 7 6 8 7 7 7 7 8 9 8 7
2 1 1 2 3 3 3 3 3 3 3 3 4 4 4 4 5 3 2 2 4 4 4 4 5 5 4 4 7 7 6 6 7 7 6 7 9 7
1 2 2 3 3 3 3 3 3 4 3 3 4 4 4 4 4 4 3 3 4 4 4 3 3 3 5 6 6 5 5 7 8 7 6 6 8 10
1 3 3 3 3 3 3 3 4 3 3 3 4 4 4 4 4 4 4 4 4 4 4 4 3 3 3 5 5 6 10 8 7 8 8 7 7 11
3 3 3 3 3 3 4 4 4 4 4 3 4 4 4 3 4 4 4 6 5 3 5 5 5 8 4 4 6 6 6 10 10 8 7 7 6 5
3 3 3 3 3 4 4 4 4 4 4 4 4 4 4 4 4 5 4 4 4 4 4 5 5 4 2 3 6 7 7 8 11 13 10 8 5 5
3 3 3 3 3 3 3 4 5 5 4 4 4 4 4 4 4 4 4 4 3 4 4 4 4 3 3 3 5 6 8 9 6 7 6 11 13 14
Wind_Direction
176 178 180 187 182 183 174 168 175 245 275 268 275 280 275 287 294 300 300 304 308 309 308 307 306 306 306 306 305 304 303 302 300 299 298 297 297 297
172 176 186 186 182 183 186 187 185 195 246 259 254 265 282 288 296 301 298 303 306 307 307 306 304 304 305 304 304 303 302 301 300 299 298 298 297 297
177 184 195 184 185 191 189 194 202 195 241 270 255 266 272 277 292 294 296 294 295 302 304 304 303 303 304 304 305 304 303 302 302 301 302 301 299 298
187 186 199 190 197 198 200 210 215 210 222 267 280 272 265 273 279 287 293 292 291 297 301 302 303 304 305 306 305 305 304 304 303 303 302 301 300 299
187 191 198 191 207 212 213 218 222 226 222 248 274 270 272 275 285 286 284 285 291 295 298 300 302 304 304 306 306 307 307 305 304 303 301 301 300 299
189 193 195 199 211 214 218 222 223 229 232 246 268 276 272 272 272 284 293 281 287 292 292 296 299 303 304 306 307 307 307 305 303 303 302 301 300 299
191 199 205 212 220 220 224 222 216 226 235 249 266 279 281 285 278 275 290 294 285 272 278 288 293 293 295 300 304 303 303 304 303 303 304 304 303 302
197 207 216 222 234 241 248 247 236 233 237 243 261 270 276 273 276 280 288 299 300 266 273 286 282 285 289 291 297 302 304 307 308 308 309 308 307 306
193 199 213 225 238 238 253 259 259 261 261 258 257 263 271 269 276 282 280 283 285 285 286 285 274 279 287 294 302 305 307 312 315 314 313 311 311 310
194 198 208 223 229 236 233 242 250 256 262 262 248 257 261 266 263 275 284 286 276 272 262 278 278 278 292 293 298 304 312 319 320 318 316 315 313 310
197 199 207 222 247 256 243 248 261 265 272 276 278 282 289 295 301 304 302 300 300 290 249 258 283 295 288 280 290 305 313 318 320 320 318 317 315 314
195 211 227 241 259 263 243 241 263 267 262 280 286 293 297 302 308 302 281 287 293 292 268 270 283 310 304 279 280 294 303 310 318 320 319 319 319 320
196 214 231 255 265 270 271 248 267 283 255 258 271 280 287 287 287 281 261 257 272 270 272 280 281 277 272 296 292 281 285 297 309 311 318 321 322 323
201 213 231 258 270 278 281 282 288 297 290 278 279 279 281 283 282 279 276 265 257 261 273 268 263 270 285 293 294 295 298 294 295 299 307 318 320 321
203 227 245 261 273 277 284 292 300 299 285 281 279 275 269 269 277 287 287 285 283 280 280 270 257 269 269 278 288 297 308 303 296 304 308 309 305 308
181 224 264 289 312 303 303 308 303 274 276 267 272 270 276 282 282 282 288 303 310 306 300 294 282 267 270 273 278 288 293 293 304 308 308 304 299 296
145 114 103 279 275 283 287 286 286 293 293 282 282 288 294 297 296 291 277 282 284 296 308 313 307 289 264 264 277 280 287 291 292 303 311 309 301 294
139 167 218 239 251 264 274 280 280 278 276 279 281 282 288 291 293 295 286 276 286 287 293 300 320 329 325 290 245 268 284 289 299 304 302 304 304 302
147 204 230 242 254 261 263 262 266 270 272 273 275 277 281 283 289 293 292 288 289 287 289 294 305 317 321 317 301 272 284 302 306 305 298 293 295 300
201 222 237 245 252 257 260 264 269 275 273 274 273 273 273 274 281 286 286 280 286 290 297 299 289 284 279 293 296 294 298 295 298 301 302 300 289 289
230 239 243 248 252 255 259 261 262 265 266 267 269 268 268 265 271 276 279 290 291 285 291 291 285 304 291 289 293 294 295 301 300 294 298 304 305 304
235 243 249 251 253 255 258 259 263 265 266 262 264 266 265 262 266 270 272 276 277 275 276 285 299 313 301 282 293 300 303 309 313 311 296 282 288 303
240 245 249 253 254 254 253 255 258 262 258 257 261 263 264 265 265 264 265 264 272 282 290 301 312 310 286 276 287 295 301 309 313 319 312 314 310 300
Height
1515 1515 1515 1515 1515 1514 1513 1512 1511 1507 1504 1503 1503 1502 1500 1497 1494 1491 1487 1484 1481 1477 1474 1471 1467 1464 1461 1457 1454 1452 1449 1447 1444 1442 1440 1438 1436 1434
1510 1511 1511 1511 1511 1510 1509 1508 1507 1505 1501 1498 1498 1497 1494 1492 1489 1485 1482 1479 1475 1471 1468 1464 1461 1458 1454 1451 1448 1445 1442 1439 1437 1435 1432 1430 1428 1426
1505 1506 1507 1507 1506 1505 1504 1503 1502 1500 1496 1493 1493 1491 1489 1486 1483 1480 1476 1473 1469 1465 1461 1458 1454 1451 1447 1444 1441 1438 1435 1432 1430 1427 1425 1423 1420 1418
1501 1501 1502 1502 1501 1500 1499 1498 1497 1495 1492 1488 1486 1485 1483 1480 1477 1473 1470 1466 1462 1459 1455 1451 1448 1444 1441 1437 1434 1431 1428 1425 1422 1420 1417 1415 1413 1411
1496 1496 1497 1496 1496 1495 1494 1493 1491 1489 1487 1483 1480 1478 1476 1474 1470 1466 1463 1459 1456 1452 1448 1445 1441 1437 1434 1430 1427 1424 1421 1418 1415 1412 1410 1408 1406 1403
1490 1491 1491 1491 1490 1489 1488 1487 1485 1484 1481 1478 1475 1472 1470 1467 1463 1459 1455 1452 1449 1445 1442 1438 1435 1431 1428 1424 1420 1417 1414 1411 1408 1406 1403 1401 1398 1396
1485 1485 1486 1485 1485 1484 1482 1481 1480 1477 1475 1472 1469 1466 1463 1461 1457 1453 1448 1444 1441 1438 1434 1432 1429 1425 1422 1418 1414 1411 1408 1405 1402 1399 1397 1394 1392 1389
1479 1480 1480 1480 1479 1478 1477 1476 1474 1472 1469 1467 1463 1461 1458 1455 1452 1448 1443 1438 1433 1432 1428 1424 1422 1418 1415 1412 1408 1405 1402 1399 1396 1393 1390 1388 1385 1383
1473 1474 1474 1474 1473 1472 1471 1470 1468 1467 1465 1462 1458 1455 1452 1449 1446 1442 1438 1434 1430 1427 1422 1416 1415 1412 1409 1406 1402 1399 1396 1393 1390 1387 1384 1382 1379 1377
1468 1468 1468 1468 1467 1466 1464 1463 1461 1460 1458 1456 1453 1450 1447 1444 1441 1437 1433 1428 1424 1422 1418 1412 1408 1406 1403 1400 1397 1394 1391 1388 1385 1381 1379 1376 1373 1371
1462 1462 1462 1462 1461 1460 1458 1456 1455 1453 1452 1449 1447 1444 1442 1439 1436 1432 1427 1423 1417 1414 1412 1408 1403 1399 1396 1394 1392 1389 1386 1383 1380 1376 1373 1371 1368 1365
1456 1456 1456 1456 1455 1454 1452 1450 1448 1447 1445 1442 1440 1438 1436 1433 1430 1427 1423 1419 1414 1410 1407 1404 1400 1396 1391 1388 1387 1385 1382 1378 1375 1372 1369 1366 1363 1360
1450 1451 1451 1450 1449 1448 1447 1445 1443 1441 1438 1436 1433 1431 1429 1427 1424 1421 1418 1415 1411 1407 1405 1401 1396 1394 1391 1385 1381 1380 1377 1374 1370 1367 1365 1362 1359 1357
1445 1445 1445 1445 1444 1443 1441 1439 1438 1435 1433 1430 1428 1425 1423 1421 1418 1415 1413 1410 1407 1404 1401 1398 1394 1391 1387 1382 1378 1375 1373 1370 1367 1364 1361 1359 1356 1353
1440 1440 1440 1439 1438 1437 1435 1434 1432 1429 1427 1424 1422 1420 1418 1415 1412 1409 1407 1404 1402 1400 1397 1394 1391 1388 1385 1381 1376 1372 1369 1366 1364 1361 1358 1355 1352 1349
1435 1435 1435 1434 1433 1432 1430 1428 1426 1424 1422 1419 1417 1415 1413 1410 1407 1405 1402 1399 1397 1395 1393 1390 1387 1384 1380 1377 1374 1370 1367 1364 1361 1358 1354 1351 1349 1346
1430 1430 1429 1428 1427 1426 1425 1423 1421 1419 1417 1415 1412 1410 1408 1405 1403 1401 1398 1396 1393 1390 1388 1386 1384 1381 1378 1375 1370 1368 1365 1362 1359 1355 1351 1347 1345 1343
1425 1424 1424 1423 1422 1420 1419 1417 1416 1414 1412 1410 1408 1406 1404 1401 1399 1397 1395 1393 1390 1387 1385 1382 1380 1377 1374 1371 1369 1365 1362 1359 1355 1352 1349 1345 1341 1340
1420 1419 1419 1418 1417 1415 1414 1412 1410 1409 1407 1405 1403 1402 1400 1398 1396 1393 1391 1389 1387 1385 1383 1381 1378 1375 1371 1368 1366 1364 1360 1356 1352 1349 1346 1343 1339 1336
1415 1415 1414 1413 1412 1410 1409 1407 1406 1404 1402 1401 1399 1397 1396 1394 1392 1390 1388 1386 1384 1382 1380 1379 1376 1374 1371 1368 1364 1361 1359 1355 1350 1346 1343 1340 1337 1334
1410 1410 1409 1408 1407 1405 1404 1402 1401 1399 1398 1396 1395 1393 1392 1390 1388 1387 1385 1384 1382 1380 1378 1376 1375 1372 1370 1367 1363 1359 1356 1354 1350 1345 1341 1338 1334 1331
1406 1405 1404 1403 1402 1400 1399 1397 1396 1394 1393 1392 1390 1389 1388 1386 1385 1383 1382 1381 1379 1378 1376 1374 1372 1370 1368 1365 1361 1357 1354 1351 1348 1345 1342 1338 1335 1331
1401 1400 1399 1398 1397 1395 1394 1392 1391 1389 1388 1387 1386 1385 1384 1382 1381 1380 1379 1378 1377 1375 1374 1372 1370 1368 1366 1363 1360 1356 1353 1349 1346 1343 1341 1338 1334 1331